Weather History for Big Piney, WY

Change the Weather History Date:

Tuesday, September 10, 2013

  Actual Average Record
Temperature  
Mean Temperature 56 °F 52 °F  
Max Temperature 68 °F 70 °F 81 °F (2009)
Min Temperature 43 °F 33 °F 21 °F (2000)
Degree Days  
Heating Degree Days 9 13  
Month to date heating degree days 33 115  
Since 1 July heating degree days 134 408  
Cooling Degree Days 0 0  
Month to date cooling degree days 5 0  
Year to date cooling degree days 89 35  
Growing Degree Days 4 (Base 50)    
Moisture  
Dew Point 42 °F    
Average Humidity 66    
Maximum Humidity 89    
Minimum Humidity 42    
Precipitation  
Precipitation 0.00 in 0.02 in 0.54 in (1986)
Month to date precipitation 0.24 0.26  
Year to date precipitation 3.24 4.92  
Sea Level Pressure  
Sea Level Pressure 30.03 in    
Wind  
Wind Speed 6 mph (South)    
Max Wind Speed 18 mph    
Max Gust Speed 24 mph    
Visibility 10 miles    
Events      
T = Trace of Precipitation, MM = Missing Value Source: NWS Daily Summary

Daily Weather History Graph

Daily Weather History Graph

Search for Another Location

Airport:

Trip Planner

Search our weather history database for the weather conditions in past years. The results will help you decide how hot, cold, wet, or windy it might be!

Date:

Astronomy

Sep. 10, 2013 Rise Set
Actual Time 6:55 AM MDT 7:38 PM MDT
Civil Twilight 6:26 AM MDT 8:06 PM MDT
Nautical Twilight 5:52 AM MDT 8:40 PM MDT
Astronomical Twilight 5:17 AM MDT 9:15 PM MDT
Moon 12:32 PM MDT (9/10) 10:36 PM MDT (9/10)
Length of Visible Light 13h 40m
Length of Day
12h 43m
Waxing Crescent, 29% of the Moon is Illuminated
Sep 10
Waxing Crescent
Sep 12
First Quarter
Sep 19
Full
Sep 26
Last Quarter
Oct 4
New

Hourly Weather History & Observations

Time (MDT) Temp. Windchill Dew Point Humidity Pressure Visibility Wind Dir Wind Speed Gust Speed Precip Events Conditions
12:53 AM 48.9 °F - 41.0 °F 74% 29.93 in 10.0 mi SSW 4.6 mph - N/A   Clear
1:53 AM 46.0 °F 43.9 °F 41.0 °F 83% 29.96 in 10.0 mi SW 4.6 mph - N/A   Scattered Clouds
2:53 AM 45.0 °F - 39.9 °F 82% 29.96 in 10.0 mi Calm Calm - N/A   Clear
3:53 AM 44.1 °F 42.5 °F 39.9 °F 85% 29.95 in 10.0 mi North 3.5 mph - N/A   Clear
4:53 AM 45.0 °F - 41.0 °F 86% 29.97 in 10.0 mi Calm Calm - N/A   Clear
5:53 AM 45.0 °F 41.8 °F 39.9 °F 82% 29.98 in 10.0 mi NE 5.8 mph - N/A   Clear
6:53 AM 43.0 °F 41.3 °F 39.9 °F 89% 30.00 in 10.0 mi East 3.5 mph - N/A   Mostly Cloudy
7:53 AM 46.0 °F - 41.0 °F 83% 30.03 in 10.0 mi Calm Calm - N/A   Overcast
8:53 AM 48.9 °F - 43.0 °F 80% 30.04 in 10.0 mi Calm Calm - N/A   Overcast
9:53 AM 52.0 °F - 44.1 °F 74% 30.07 in 10.0 mi SW 6.9 mph - N/A   Overcast
10:53 AM 59.0 °F - 43.0 °F 55% 30.04 in 10.0 mi South 6.9 mph - N/A   Mostly Cloudy
11:53 AM 62.1 °F - 43.0 °F 50% 30.04 in 10.0 mi SW 9.2 mph - N/A   Overcast
12:53 PM 64.9 °F - 43.0 °F 45% 30.03 in 10.0 mi SSW 9.2 mph - N/A   Clear
1:53 PM 66.0 °F - 43.0 °F 43% 30.04 in 10.0 mi SSE 12.7 mph - N/A   Scattered Clouds
2:53 PM 64.9 °F - 44.1 °F 47% 30.04 in 10.0 mi SSE 16.1 mph - N/A   Mostly Cloudy
3:53 PM 66.0 °F - 42.1 °F 42% 30.03 in 10.0 mi South 6.9 mph 18.4 mph N/A   Mostly Cloudy
4:53 PM 66.9 °F - 42.1 °F 40% 30.01 in 10.0 mi SSE 11.5 mph 18.4 mph N/A   Scattered Clouds
5:53 PM 66.9 °F - 43.0 °F 42% 30.01 in 10.0 mi South 13.8 mph - N/A   Partly Cloudy
6:53 PM 64.0 °F - 43.0 °F 46% 30.05 in 10.0 mi South 15.0 mph - N/A   Scattered Clouds
7:53 PM 60.1 °F - 43.0 °F 53% 30.06 in 10.0 mi South 3.5 mph - N/A   Clear
8:05 PM 57.2 °F - 42.8 °F 59% 30.26 in 10.0 mi Variable 4.6 mph - N/A   Partly Cloudy
8:53 PM 57.9 °F - 43.0 °F 58% 30.08 in 10.0 mi West 5.8 mph - N/A   Scattered Clouds
9:53 PM 59.0 °F - 42.1 °F 53% 30.07 in 10.0 mi Calm Calm - N/A   Overcast
10:53 PM 57.0 °F - 43.0 °F 59% 30.06 in 10.0 mi SW 6.9 mph - N/A   Overcast
11:53 PM 57.0 °F - 42.1 °F 57% 30.05 in 10.0 mi SE 4.6 mph - N/A   Mostly Cloudy